Weather in Karmatskaya

Russia / Tyumen Oblast     56°44′22″N   68°38′33″E
temp.,
°C
wind,
m/s
gust,
m/s
humid.,
%
clouds,
%
prec.,
mm/h
press.,
hPa
HPBL,
m
15 may, sat
sat1523:00+19sw514477 0.0 1021267
02:00+19wsw5144722 0.0 1020313
05:00+16wsw49615 0.0 1020145
08:00+22w47455 0.0 1020323
11:00+28wnw58305 0.0 10192321
14:00+30w68245 0.0 10182951
17:00+29w57264 0.0 10163143
20:00+24sw48442 0.0 1015122
16 may, sun
sun1623:00+21wsw5144672 0.0 1014277
02:00+19w51455100 0.2 1015292
05:00+18wnw5136397 0.2 1016297
08:00+22wnw6114974 0.0 1016594
11:00+27wnw610385 0.0 10161817
14:00+29nw71233100 0.0 10153136
17:00+28nne483652 0.0 10152063
20:00+22ese345970 0.0 101655
17 may, mon
mon1723:00+19sse486815 0.0 1017126
02:00+17ssw4107356 0.0 1016165
05:00+17wsw465426 0.0 101676
08:00+24w5114032 0.0 1016401
11:00+29w710280 0.0 10162459
14:00+31wnw710215 0.0 10143829
17:00+30w71025100 0.0 10133867
20:00+24wsw5113830 0.4 1012198
18 may, tue
tue1823:00+18ne4969100 1.1 1014216
02:00+16wsw3475100 0.2 101457
05:00+16w38758 0.2 1013152
08:00+21wnw585589 0.0 1013396
11:00+25nw3535100 0.0 10121636
14:00+27w693069 0.0 10103082
17:00+17ene687395 0.9 1011310
20:00+15s129198 6.0 1013152
19 may, wed
wed1923:00+15nnw378049 8.3 1013175
02:00+13n59946 0.1 1015336
05:00+12nne6987100 0.1 1017760
08:00+12nne79650 0.0 1020883
11:00+16nne68435 0.0 10211470
14:00+18n5738100 0.0 10211812
17:00+18n573928 0.0 10221820
20:00+15nne355769 0.0 102384